Location: Tr�vern
(48.0333°N, 4.6000°W)
Time: 08:39:12
(UTC+00:00)

Meteor 1-19 Rocket - Pass Details

Date: 14 July 2020
Orbit: 811 x 924 km, 81.2° (Epoch: 04 August)

Event Time Altitude Azimuth Distance (km) Brightness Sun altitude
Rises 01:15:46 0° 349° (N) 3,456 8.6 -19.4°
Reaches altitude 10° 01:18:15 10° 352° (N) 2,498 7.7 -19.3°
Maximum altitude 01:23:54 70° 76° (ENE) 892 4.4 -19.1°
Enters shadow 01:27:07 26° 155° (SSE) 1,596 5.2 -18.9°
